H1 CPF 2 COD 2020 6 24 1 176 1 galileo214 NONE
H2 1606904 7214 41862 2020 6 23 23 59 42 2020 6 28 23 44 42 900 1 1 0 0 0 1
H5 0.5552
H9
10 0 59028  26982.000000  0   -9637027.020  24629741.638 -13277813.709
10 0 59028  27882.000000  0  -10327275.987  25480504.209 -10950640.047
10 0 59028  28782.000000  0  -10829975.285  26201857.270  -8487175.025
10 0 59028  29682.000000  0  -11159982.486  26764253.214  -5918082.260
10 0 59028  30582.000000  0  -11337213.612  27141730.498  -3275338.566
10 0 59028  31482.000000  0  -11385954.546  27312744.956   -591834.804
10 0 59028  32382.000000  0  -11334036.367  27260865.305   2099034.643
10 0 59028  33282.000000  0  -11211900.654  26975310.983   4763788.553
10 0 59028  34182.000000  0  -11051584.259  26451315.432   7369276.398
10 0 59028  35082.000000  0  -10885655.586  25690303.427   9883091.450
10 0 59028  35982.000000  0  -10746135.925  24699876.910  12273974.263
10 0 59028  36882.000000  0  -10663439.780  23493609.827  14512201.418
10 0 59028  37782.000000  0  -10665367.540  22090658.465  16569954.712
10 0 59028  38682.000000  0  -10776182.168  20515199.517  18421666.208
10 0 59028  39582.000000  0  -11015798.850  18795713.568  20044334.894
10 0 59028  40482.000000  0  -11399113.013  16964136.451  21417811.092
10 0 59028  41382.000000  0  -11935487.771  15054904.988  22525045.224
10 0 59028  42282.000000  0  -12628416.785  13103927.005  23352297.920
10 0 59028  43182.000000  0  -13475373.082  11147507.702  23889309.021
10 0 59028  44082.000000  0  -14467848.554   9221265.823  24129423.502
10 0 59028  44982.000000  0  -15591582.881   7359073.412  24069672.857
10 0 59028  45882.000000  0  -16826974.754   5592052.057  23710811.023
10 0 59028  46782.000000  0  -18149662.609   3947656.826  23057304.471
10 0 59028  47682.000000  0  -19531256.758   2448876.331  22117276.606
10 0 59028  48582.000000  0  -20940200.159   1113573.744  20902407.154
10 0 59028  49482.000000  0  -22342731.025    -46010.845  19427787.746
10 0 59028  50382.000000  0  -23703917.280  -1023581.268  17711735.422
10 0 59028  51282.000000  0  -24988730.635  -1818919.405  15775566.282
10 0 59028  52182.000000  0  -26163126.807  -2437828.535  13643331.968
10 0 59028  53082.000000  0  -27195098.125  -2891887.675  11341522.174
10 0 59028  53982.000000  0  -28055665.669  -3198024.683   8898736.757
10 0 59028  54882.000000  0  -28719779.880  -3377921.530   6345331.416
10 0 59028  55782.000000  0  -29167101.424  -3457270.361   3713041.312
10 0 59028  56682.000000  0  -29382637.829  -3464903.709   1034587.237
10 0 59028  57582.000000  0  -29357215.863  -3431826.182  -1656730.806
10 0 59028  58482.000000  0  -29087774.775  -3390178.005  -4327447.518
10 0 59028  59382.000000  0  -28577471.136  -3372163.014  -6944348.558
10 0 59028  60282.000000  0  -27835591.872  -3408974.846  -9474883.951
10 0 59028  61182.000000  0  -26877278.156  -3529755.058 -11887573.394
10 0 59028  62082.000000  0  -25723068.726  -3760616.041 -14152398.400
10 0 59028  62982.000000  0  -24398276.862  -4123759.500 -16241176.372
10 0 59028  63882.000000  0  -22932220.521  -4636718.266 -18127911.849
10 0 59028  64782.000000  0  -21357329.686  -5311745.407 -19789120.569
10 0 59028  65682.000000  0  -19708158.847  -6155369.926 -21204122.286
10 0 59028  66582.000000  0  -18020335.551  -7168133.123 -22355298.671
10 0 59028  67482.000000  0  -16329477.877  -8344514.037 -23228313.107
10 0 59028  68382.000000  0  -14670114.715  -9673046.474 -23812289.640
10 0 59028  69282.000000  0  -13074642.623 -11136624.061 -24099948.860
10 0 59028  70182.000000  0  -11572351.871 -12712983.940 -24087699.039
10 0 59028  71082.000000  0  -10188552.099 -14375354.098 -23775681.375
10 0 59028  71982.000000  0   -8943824.934 -16093244.143 -23167768.771
10 0 59028  72882.000000  0   -7853426.907 -17833354.914 -22271518.136
10 0 59028  73782.000000  0   -6926861.273 -19560578.536 -21098076.777
10 0 59028  74682.000000  0   -6167632.126 -21239057.646 -19662043.995
10 0 59028  75582.000000  0   -5573188.407 -22833270.719 -17981289.574
10 0 59028  76482.000000  0   -5135059.474 -24309109.519 -16076731.372
10 0 59028  77382.000000  0   -4839177.927 -25634914.928 -13972074.760
10 0 59028  78282.000000  0   -4666379.423 -26782438.716 -11693517.130
10 0 59028  79182.000000  0   -4593063.707 -27727701.115  -9269421.148
10 0 59028  80082.000000  0   -4591995.987 -28451717.278  -6729960.843
10 0 59028  80982.000000  0   -4633223.356 -28941069.872  -4106745.005
10 0 59028  81882.000000  0   -4685077.326 -29188309.855  -1432422.597
10 0 59028  82782.000000  0   -4715230.876 -29192172.886   1259724.760
10 0 59028  83682.000000  0   -4691776.639 -28957604.641   3936198.098
10 0 59028  84582.000000  0   -4584292.223 -28495594.318   6563698.948
10 0 59028  85482.000000  0   -4364859.125 -27822821.641   9109544.380
99